SCP
0 0 0 0 0 0 0 0 0 -0 -0 -0 -0 -0 -0 0 0 0 0 0 0 0 0 0 0 0 0 0 0 0 0 0 0 0 0 0 0 0 0 0 0 0 0
0 0 0 0 0 0 0 0 -0 -0 -0 -0 -0 -0 -0 0 0 0 0 0 0 0 0 0 0 0 0 0 0 0 0 0 -0 -0 -0 0 0 0 0 0 0 0 0
0 0 -0 -0 -0 -0 -0 -0 -0 -0 -0 -0 -0 -0 -0 -0 0 0 0 0 0 0 0 0 0 0 0 0 0 0 0 -0 -0 -0 -0 0 0 0 0 0 0 0 0
0 0 -0 -0 -0 -0 -0 -0 -0 -0 -0 -0 -0 -0 -0 -0 -0 -0 0 0 0 0 0 0 0 0 -0 -0 -0 -0 -0 -0 -0 -0 -0 0 0 0 0 0 0 0 0
0 -0 -0 -0 -0 -0 -0 -0 -0 -0 -0 -0 -0 -0 -0 -0 -0 -0 -0 -0 -0 -0 -0 -0 -0 -0 -0 -0 -0 -0 -0 -0 -0 -0 0 0 0 0 0 0 0 0 0
0 0 -0 -0 -0 -0 -0 -0 -0 -0 -0 -0 -0 -0 -0 -0 -0 -0 -0 -0 -0 -0 -0 -0 -0 -0 -0 -0 -0 -0 -0 -0 -0 0 0 0 0 0 0 0 0 0 0
0 0 -0 -0 -0 -0 -0 -0 -0 -0 -0 -0 -0 -0 -0 -0 -0 -0 -0 -0 -0 -0 -0 -0 -0 -0 -0 -0 -0 -0 -0 -0 0 0 0 0 0 0 0 0 0 0 0
0 0 0 -0 -0 -0 -0 -0 -0 -0 -0 -0 -0 -0 -0 0 0 -0 -0 -0 -0 -0 -0 -0 -0 -0 0 0 0 -0 -0 0 0 0 0 0 0 0 0 0 0 0 0
1 0 0 0 -0 -0 -0 -0 -0 -0 -0 -0 -0 -0 0 0 0 0 0 0 0 0 0 0 0 0 0 0 0 0 0 0 0 0 0 0 0 0 0 0 0 0 0
1 0 0 0 0 -0 -0 -0 -0 -0 -0 -0 0 0 0 0 0 0 0 0 0 0 0 0 0 0 0 0 0 0 0 0 0 0 0 0 0 0 0 0 0 0 0
1 1 0 0 0 0 0 -0 -0 -0 0 0 0 0 0 0 0 0 0 0 0 0 0 0 0 0 0 0 0 0 0 0 0 0 0 0 0 0 0 0 0 0 0
1 1 1 0 0 0 0 0 0 0 0 0 0 0 0 0 0 0 0 0 0 0 0 0 0 0 0 0 0 0 0 0 0 0 0 0 0 0 0 0 0 0 0
1 1 1 1 0 0 0 0 0 0 0 0 0 0 0 0 0 0 0 0 0 0 0 0 0 0 0 0 0 0 0 0 0 0 0 0 0 0 0 0 0 0 0
1 1 1 1 1 0 0 0 0 0 0 0 0 0 0 0 0 0 0 0 0 0 0 0 0 0 0 0 0 0 0 0 0 0 0 0 0 0 0 0 0 0 0
1 1 1 1 1 1 0 0 0 0 0 0 0 0 0 0 0 0 0 0 0 0 0 0 0 0 0 0 0 0 0 0 0 0 0 0 0 0 0 0 0 0 0
1 1 1 1 1 1 1 0 0 0 0 0 0 0 0 0 0 0 0 0 0 0 0 0 0 0 0 0 0 0 0 0 0 0 0 0 0 0 0 0 0 0 0
1 1 1 1 1 1 1 0 0 0 0 0 0 0 0 0 0 0 0 0 0 0 0 0 0 0 0 0 0 0 0 0 0 0 0 0 0 0 0 0 0 0 0
1 1 1 1 1 1 1 1 0 0 0 0 0 0 0 0 0 0 0 0 0 0 0 0 0 0 0 0 0 0 0 0 0 0 0 0 0 0 0 0 0 0 0
1 1 1 1 1 1 1 1 1 0 0 0 0 0 0 0 0 0 0 0 0 0 0 0 0 0 0 0 0 0 0 0 0 0 0 0 0 0 0 0 0 0 0
1 1 1 1 1 1 1 1 1 1 0 0 0 0 0 0 0 0 0 0 0 0 0 0 0 0 0 0 0 0 0 0 0 0 0 0 0 0 0 0 0 0 0
1 1 1 1 1 1 1 1 1 1 1 1 0 0 0 0 0 0 0 0 0 0 0 0 0 0 0 0 0 0 0 0 0 0 0 0 0 0 0 0 0 0 0
1 1 1 1 1 1 1 1 1 1 1 1 0 0 0 0 0 0 0 0 0 0 0 0 0 0 0 0 0 0 0 0 0 0 0 0 0 0 0 0 0 0 0
0 1 1 1 1 1 1 1 1 1 1 0 0 0 0 0 0 0 0 0 0 0 0 0 0 0 0 0 0 0 0 0 0 0 0 0 0 0 0 0 0 0 0
0 0 0 1 1 1 1 1 1 0 0 0 0 0 0 0 0 0 0 0 0 0 0 0 0 0 0 0 0 0 0 0 0 0 0 0 0 0 0 0 0 0 0
0 0 0 0 0 0 0 0 0 0 0 0 0 0 0 0 0 0 0 0 0 0 0 0 0 0 0 0 0 0 0 0 0 0 0 0 0 0 0 0 0 0 0
0 0 0 0 0 0 0 0 0 0 0 0 0 0 0 0 0 0 0 0 0 0 0 0 0 0 0 0 0 0 0 0 0 0 0 0 0 0 0 0 0 0 0
Wind_Speed
12 15 17 17 16 15 14 14 13 12 12 12 13 13 14 15 15 15 16 17 17 18 18 18 18 17 17 16 16 15 14 13 13 14 14 13 14 15 16 15 13 9 14
16 16 17 16 16 15 15 14 13 12 12 12 13 14 14 15 15 15 16 16 17 17 17 17 17 16 16 15 14 13 11 9 9 7 8 10 12 14 15 15 14 9 14
18 17 15 16 16 16 15 14 13 12 12 12 13 14 14 14 15 15 16 16 16 16 16 16 16 15 14 14 12 11 9 7 6 4 3 5 9 14 14 14 14 14 14
18 15 14 16 16 16 15 14 13 12 12 12 13 13 14 14 15 15 15 16 15 15 15 14 14 13 13 12 11 9 7 7 8 5 5 7 7 13 14 14 14 14 14
16 14 16 16 16 16 15 14 13 12 12 13 13 13 14 14 14 15 15 14 14 14 13 13 13 12 12 11 10 8 7 8 9 5 7 7 6 11 13 13 13 14 13
15 15 15 16 16 15 14 13 13 12 12 13 13 13 14 14 14 14 14 13 12 12 12 12 12 11 11 10 8 7 8 10 6 5 7 6 5 11 12 12 12 12 13
15 15 15 16 16 15 14 13 12 12 12 13 13 13 14 14 14 13 12 12 11 11 11 11 10 10 9 8 7 7 9 11 3 6 6 6 6 10 11 11 11 11 11
15 15 14 15 15 14 13 12 11 11 11 12 12 13 13 13 13 12 11 10 10 10 9 9 9 8 8 7 6 6 8 8 6 5 6 5 7 9 9 9 9 10 10
14 14 11 11 12 12 12 11 10 9 10 10 11 12 12 11 11 11 10 9 8 8 7 7 7 6 6 5 4 5 7 9 6 1 5 4 6 7 7 7 7 8 8
11 12 11 10 10 9 8 10 10 9 10 10 11 11 10 10 10 10 8 7 7 6 5 5 4 3 2 1 1 3 6 8 5 1 3 4 6 5 4 4 5 5 6
8 9 10 10 10 9 9 9 9 9 9 10 8 10 9 6 7 6 8 7 6 5 4 3 2 2 2 3 4 5 5 4 2 1 3 6 5 2 1 1 2 3 3
8 7 7 8 8 9 8 7 6 6 6 6 6 7 5 4 4 7 9 8 6 5 4 5 5 5 5 4 5 6 3 5 2 1 4 9 6 2 2 2 1 1 1
7 7 7 7 7 7 6 5 4 4 5 5 7 7 4 4 4 5 4 4 4 5 4 5 5 5 5 3 2 4 4 1 2 1 4 8 6 4 5 5 5 4 3
8 7 7 7 6 6 5 4 4 3 3 3 4 4 3 2 2 3 3 4 4 4 4 4 4 5 4 4 4 4 3 2 3 2 4 9 8 7 7 8 7 7 6
8 8 7 7 7 5 4 3 3 3 3 3 3 2 2 2 2 2 2 2 2 2 3 2 3 3 2 3 3 3 4 4 4 3 3 10 10 9 9 10 10 10 9
7 8 7 7 7 6 4 3 2 3 2 3 3 2 2 2 2 1 1 1 1 1 1 2 3 2 2 2 2 3 4 4 4 4 3 6 11 11 11 12 12 12 11
6 7 7 7 7 7 6 4 3 3 3 3 3 3 3 2 2 2 1 1 2 2 2 2 3 2 2 2 3 5 4 4 4 4 4 3 5 11 12 13 13 12 12
6 6 6 6 6 6 5 4 3 3 3 3 3 2 3 3 3 2 2 2 2 1 1 1 2 2 2 3 3 3 3 3 4 5 4 3 3 4 8 13 12 12 12
6 6 6 5 6 6 5 4 3 3 3 2 2 2 2 2 2 2 2 2 2 1 1 2 2 2 3 3 3 3 3 3 4 4 5 5 4 3 2 5 9 10 10
5 6 7 6 6 6 4 3 3 2 2 2 2 2 2 1 1 1 1 2 2 1 2 2 3 3 2 3 3 4 4 5 5 5 5 3 2 2 1 1 2 4 7
5 6 7 7 6 5 4 4 3 3 3 2 2 3 2 1 1 1 0 1 1 1 2 3 2 3 3 2 2 3 5 7 7 6 3 1 0 1 1 1 0 0 0
6 6 6 6 6 5 4 3 3 3 2 3 3 3 2 2 1 1 1 1 1 1 2 3 2 2 2 1 1 2 4 4 4 2 1 2 1 1 2 2 2 3 3
6 6 5 6 5 5 5 4 3 3 2 2 2 2 2 3 3 3 2 2 2 1 2 2 2 2 2 2 2 3 2 3 3 3 1 1 2 2 2 2 4 5 6
6 5 4 5 5 4 5 5 5 4 3 3 3 3 3 3 4 3 3 3 2 2 2 2 2 2 2 3 3 3 3 2 2 3 2 1 1 2 2 3 4 5 6
7 5 4 4 4 4 4 5 5 4 3 3 3 4 4 4 4 4 4 3 3 2 3 3 3 3 2 2 2 2 2 2 3 3 3 2 1 2 3 4 4 5 6
7 6 5 5 4 4 4 4 4 5 5 5 4 3 3 3 3 4 3 3 3 3 3 3 3 3 3 3 2 2 2 2 1 2 3 2 1 0 3 4 5 5 5
Wind_Direction
128 137 141 137 131 126 121 114 107 102 100 99 94 88 83 80 77 76 77 79 82 84 85 85 84 82 81 79 77 76 76 78 80 79 74 64 58 56 52 49 56 52 54
130 137 141 138 134 128 121 115 109 106 104 102 97 92 87 84 82 80 81 81 81 83 83 83 82 81 80 78 77 76 77 77 77 78 83 70 59 56 55 52 51 51 52
129 136 140 138 134 128 122 117 113 109 107 104 100 96 92 88 86 84 83 83 82 82 81 81 80 80 79 78 77 75 70 55 34 21 76 82 63 56 56 52 49 48 47
129 139 141 137 134 129 125 120 117 114 109 107 103 100 97 93 90 87 85 84 84 84 83 82 81 80 79 78 76 71 54 21 359 23 72 73 60 56 54 51 48 47 44
131 137 133 137 133 129 126 123 120 116 112 112 107 104 102 98 95 92 89 88 87 87 85 83 82 80 79 76 71 59 33 6 353 41 73 73 61 57 54 50 47 45 43
129 125 133 135 132 129 127 125 123 119 117 116 113 108 107 104 100 97 95 93 90 88 87 84 82 80 78 74 64 43 16 358 352 70 72 69 62 58 55 50 47 43 40
124 126 136 133 132 130 128 127 125 122 120 121 118 113 112 109 106 103 100 98 94 91 88 86 82 79 75 70 57 28 3 347 17 83 84 73 65 61 55 50 46 44 41
122 128 134 134 132 130 129 127 127 126 124 123 121 116 115 114 111 109 106 103 97 92 88 85 81 77 72 65 48 16 354 346 357 81 97 88 74 64 55 51 49 46 44
123 129 135 135 131 128 126 126 126 124 123 124 121 119 118 118 118 116 113 109 102 95 91 87 83 78 73 63 38 358 337 332 326 32 101 99 87 70 58 52 48 47 47
127 136 141 142 138 135 127 124 122 120 120 120 121 123 126 130 131 129 122 112 109 105 101 98 94 93 94 97 343 310 311 316 286 165 108 115 102 79 62 53 45 45 46
134 140 145 147 148 145 138 134 126 123 124 126 129 141 147 160 153 147 128 130 128 128 131 137 159 201 215 222 229 248 282 274 276 110 114 132 127 110 73 49 36 33 39
148 145 144 147 147 141 138 149 151 149 151 165 158 172 196 177 133 129 139 152 159 170 180 200 216 236 238 226 229 239 256 264 276 191 148 151 155 185 242 249 258 289 333
155 147 144 140 138 134 144 162 156 157 170 188 167 185 185 133 132 138 158 164 185 195 203 210 218 232 231 208 184 221 232 292 311 298 157 164 175 212 248 255 249 247 251
158 153 147 142 141 145 152 151 150 152 169 169 162 177 164 146 159 169 172 178 189 194 198 192 219 222 218 219 219 238 245 220 233 223 175 181 191 215 242 253 254 249 245
161 160 155 151 150 150 145 149 162 157 162 154 145 179 154 139 181 172 190 174 208 193 175 210 246 257 247 253 251 248 263 259 246 230 188 195 201 213 232 246 251 252 247
165 164 157 158 155 151 151 160 168 152 142 137 142 180 170 161 160 126 224 169 229 211 229 226 250 256 262 265 278 280 269 268 261 253 223 204 211 217 227 239 247 251 253
165 163 160 162 159 160 164 173 166 154 154 149 151 180 170 168 152 158 250 206 228 227 234 242 279 298 298 295 283 275 269 265 274 276 265 230 209 217 226 237 245 251 256
161 160 162 163 167 167 166 167 161 168 157 154 153 170 176 183 175 177 210 235 243 236 233 243 263 281 274 265 265 271 275 274 266 264 266 262 235 210 218 229 241 251 257
161 161 161 161 167 170 166 162 162 162 151 151 144 150 163 175 168 173 205 238 245 240 243 250 247 253 271 276 277 281 285 282 276 272 267 265 258 232 198 210 225 239 254
161 167 168 169 172 167 162 158 154 154 150 144 137 137 138 151 162 181 223 258 274 257 257 258 256 255 255 272 290 290 281 273 267 260 256 262 274 254 184 142 205 233 242
172 173 171 171 176 164 156 160 160 167 161 147 134 114 111 95 86 105 320 302 307 282 273 276 272 273 269 270 297 295 277 259 252 244 231 218 311 36 80 75 100 86 238
178 181 172 169 172 164 156 153 147 143 138 130 121 109 93 78 58 63 21 327 324 316 306 300 297 280 272 237 223 285 303 307 292 254 167 138 91 49 58 62 55 51 45
177 176 171 164 160 154 145 129 113 98 94 121 134 121 92 76 58 48 30 6 348 342 304 307 310 288 277 271 223 224 255 278 330 334 6 86 77 58 46 54 59 53 50
160 145 144 141 140 141 141 144 152 157 163 163 147 134 118 91 68 47 29 10 356 348 329 319 325 309 288 278 278 243 232 237 259 301 324 359 43 57 50 55 59 55 51
144 139 139 136 139 142 143 149 156 148 139 122 112 122 121 106 89 65 36 17 7 4 356 347 337 326 304 280 275 281 277 267 235 234 267 290 354 36 52 58 59 55 51
136 140 146 149 148 143 140 142 143 140 134 131 133 136 129 122 109 87 52 22 15 17 6 354 341 334 332 317 304 295 284 277 272 249 252 260 265 348 56 55 57 54 51